Regional Weather Roundup
Issued by NWS

Home | Current Version | Previous Version | Text Only | Print | Product List | Glossary On
Versions: 1 2 3 4 5 6 7 8 9 10 11 12 13 14 15 16 17 18 19 20 21 22 23 24 25 26 27 28 29 30 31 32 33 34 35 36 37 38 39 40 41 42 43 44 45 46 47 48 49 50
000
ASUS43 KLMK 250410
RWRKY
KENTUCKY REGIONAL WEATHER ROUNDUP
NATIONAL WEATHER SERVICE LOUISVILLE KY
1200 AM EDT MON JUL 25 2016

NOTE "FAIR" INDICATES FEW OR NO CLOUDS BELOW 12,000 FEET
WITH NO SIGNIFICANT WEATHER AND/OR OBSTRUCTIONS TO VISIBILITY.

KYZ001>023-026-027-061>063-070>075-250500-
WESTERN AND SOUTH CENTRAL KENTUCKY

CITY           SKY/WX    TMP DP  RH WIND       PRES   REMARKS
PADUCAH        PTCLDY    81  76  84 S3        29.95F
HENDERSON      CLEAR     79  73  83 S3        29.94F
OWENSBORO      PTCLDY    82  79  91 S6        29.96F HX  92
HOPKINSVILLE   PTCLDY    83  76  78 S5        29.98F HX  92
BOWLING GREEN  CLEAR     85  76  74 S3        29.99F HX  94
GLASGOW        PTCLDY    79  76  90 CALM      30.00F
$$

KYZ024-025-028>034-038-045-046-053-250500-
NORTH CENTRAL KENTUCKY

CITY           SKY/WX    TMP DP  RH WIND       PRES   REMARKS
LOUISVILLE/SDF PTCLDY    85  75  72 S6        29.96F HX  93
LOUISVILLE/LOU CLEAR     86  75  69 S3        29.97F HX  95
FORT KNOX      CLOUDY    78  76  94 S3        29.96F
$$

KYZ035>037-039>044-047>052-055>060-089>105-250500-
NORTHEAST KENTUCKY

CITY           SKY/WX    TMP DP  RH WIND       PRES   REMARKS
LEXINGTON      CLEAR     80  73  79 S5        30.01F
COVINGTON      PTCLDY    80  76  87 S5        29.98S
FRANKFORT      CLEAR     80  74  81 SW3       29.98F
$$

KYZ054-064>069-076>088-106>120-250500-
SOUTHEAST KENTUCKY

CITY           SKY/WX    TMP DP  RH WIND       PRES   REMARKS
JACKSON        CLOUDY    81  75  82 CALM      30.05F
LONDON         CLOUDY    78  72  81 CALM      30.05F
SOMERSET       CLEAR     75  75 100 CALM      30.04F
MIDDLESBORO    PTCLDY    76  75  97 CALM      30.06F
MONTICELLO     CLEAR    N/A N/A N/A N9        30.05F
$$





USA.gov is the U.S. government's official web portal to all federal, state and local government web resources and services.